| time (UTC) | temp F | wind direction | speed MPH | gust MPH | rain 1hr in | rain 24hr in | rain mn in | humidity % | barometer mb |
| 20260504030649 | 63 | 45 | 0.0 | 0.0 | 0.00 | 0.00 | 0.00 | 79 | 1018.5 |
| 20260504030151 | 63 | 45 | 0.0 | 0.0 | 0.00 | 0.00 | 0.00 | 79 | 1018.5 |
| 20260504025649 | 64 | 45 | 0.0 | 0.0 | 0.00 | 0.00 | 0.00 | 81 | 1018.4 |
| 20260504025150 | 64 | 45 | 0.0 | 0.0 | 0.00 | 0.00 | 0.00 | 81 | 1018.4 |
| 20260504024645 | 64 | 45 | 0.0 | 0.0 | 0.00 | 0.00 | 0.00 | 80 | 1018.4 |
| 20260504024145 | 64 | 45 | 0.0 | 0.0 | 0.00 | 0.00 | 0.00 | 79 | 1018.3 |
| 20260504023645 | 64 | 45 | 0.0 | 0.0 | 0.00 | 0.00 | 0.00 | 79 | 1018.3 |
| 20260504023144 | 64 | 45 | 0.0 | 0.0 | 0.00 | 0.00 | 0.00 | 78 | 1018.3 |
| 20260504022644 | 65 | 45 | 0.0 | 0.0 | 0.00 | 0.00 | 0.00 | 80 | 1018.2 |
| 20260504022144 | 65 | 45 | 0.0 | 0.0 | 0.00 | 0.00 | 0.00 | 78 | 1018.1 |
| 20260504021645 | 65 | 45 | 0.0 | 0.0 | 0.00 | 0.00 | 0.00 | 79 | 1018.2 |
| 20260504021145 | 65 | 45 | 0.0 | 0.0 | 0.00 | 0.00 | 0.00 | 78 | 1018.1 |
| 20260504020646 | 66 | 45 | 0.0 | 0.0 | 0.00 | 0.00 | 0.00 | 76 | 1018.0 |
| 20260504020413 | 66 | 45 | 0.0 | 0.0 | 0.00 | 0.00 | 0.00 | 75 | 1017.9 |
| 20260504015647 | 66 | 45 | 0.0 | 0.0 | 0.00 | 0.00 | 0.00 | 74 | 1017.8 |
| 20260504015147 | 66 | 45 | 0.0 | 0.0 | 0.00 | 0.00 | 0.00 | 75 | 1017.8 |
| 20260504014644 | 66 | 45 | 0.0 | 0.0 | 0.00 | 0.00 | 0.00 | 76 | 1017.8 |
| 20260504014143 | 67 | 45 | 0.0 | 0.0 | 0.00 | 0.00 | 0.00 | 77 | 1017.6 |
| 20260504013643 | 67 | 45 | 0.0 | 0.0 | 0.00 | 0.00 | 0.00 | 77 | 1017.6 |
| 20260504013142 | 67 | 45 | 0.0 | 0.0 | 0.00 | 0.00 | 0.00 | 76 | 1017.6 |
| 20260504012642 | 67 | 45 | 0.0 | 0.0 | 0.00 | 0.00 | 0.00 | 74 | 1017.6 |
| 20260504012631 | 67 | 45 | 0.0 | 0.0 | 0.00 | 0.00 | 0.00 | 73 | 1017.5 |
| 20260504011644 | 67 | 45 | 0.0 | 0.0 | 0.00 | 0.00 | 0.00 | 69 | 1017.5 |
| 20260504011140 | 68 | 45 | 0.0 | 0.0 | 0.00 | 0.00 | 0.00 | 68 | 1017.5 |
| 20260504010644 | 69 | 45 | 0.0 | 0.0 | 0.00 | 0.00 | 0.00 | 67 | 1017.4 |
| 20260504010138 | 69 | 45 | 0.0 | 0.0 | 0.00 | 0.00 | 0.00 | 67 | 1017.5 |
| 20260504005630 | 70 | 45 | 0.0 | 0.0 | 0.00 | 0.00 | 0.00 | 65 | 1017.4 |
| 20260504005128 | 70 | 45 | 0.0 | 0.0 | 0.00 | 0.00 | 0.00 | 62 | 1017.4 |
| 20260504004627 | 71 | 45 | 0.0 | 0.0 | 0.00 | 0.00 | 0.00 | 60 | 1017.4 |
| 20260504004127 | 71 | 45 | 0.0 | 0.0 | 0.00 | 0.00 | 0.00 | 57 | 1017.4 |
| 20260504003626 | 72 | 45 | 0.0 | 0.0 | 0.00 | 0.00 | 0.00 | 55 | 1017.3 |
| 20260504003128 | 72 | 45 | 0.0 | 0.0 | 0.00 | 0.00 | 0.00 | 53 | 1017.3 |
| 20260504002625 | 73 | 45 | 0.0 | 0.0 | 0.00 | 0.00 | 0.00 | 52 | 1017.3 |
| 20260504002122 | 73 | 45 | 0.0 | 0.0 | 0.00 | 0.00 | 0.00 | 52 | 1017.3 |
| 20260504001620 | 74 | 45 | 0.0 | 1.0 | 0.00 | 0.00 | 0.00 | 50 | 1017.3 |
| 20260504001344 | 74 | 45 | 0.0 | 2.0 | 0.00 | 0.00 | 0.00 | 49 | 1017.3 |
| 20260504000620 | 74 | 45 | 0.0 | 2.0 | 0.00 | 0.00 | 0.00 | 48 | 1017.4 |
| 20260504000120 | 74 | 45 | 0.0 | 2.0 | 0.00 | 0.00 | 0.00 | 49 | 1017.3 |
| 20260503235841 | 75 | 45 | 1.0 | 2.0 | 0.00 | 0.00 | 0.00 | 48 | 1017.4 |
| 20260503235116 | 75 | 45 | 1.0 | 3.0 | 0.00 | 0.00 | 0.00 | 46 | 1017.4 |
| 20260503235108 | 75 | 45 | 1.0 | 3.0 | 0.00 | 0.00 | 0.00 | 47 | 1017.4 |
| 20260503234117 | 75 | 45 | 1.0 | 3.0 | 0.00 | 0.00 | 0.00 | 45 | 1017.4 |
| 20260503233616 | 75 | 45 | 1.0 | 3.0 | 0.00 | 0.00 | 0.00 | 45 | 1017.4 |
| 20260503233117 | 75 | 45 | 1.0 | 4.0 | 0.00 | 0.00 | 0.00 | 46 | 1017.5 |
| 20260503232611 | 75 | 45 | 1.0 | 4.0 | 0.00 | 0.00 | 0.00 | 46 | 1017.5 |
| 20260503232104 | 75 | 45 | 1.0 | 4.0 | 0.00 | 0.00 | 0.00 | 46 | 1017.5 |
| 20260503231559 | 76 | 45 | 1.0 | 4.0 | 0.00 | 0.00 | 0.00 | 44 | 1017.5 |
| 20260503231317 | 76 | 45 | 1.0 | 4.0 | 0.00 | 0.00 | 0.00 | 44 | 1017.5 |
| 20260503230546 | 76 | 45 | 1.0 | 5.0 | 0.00 | 0.00 | 0.00 | 45 | 1017.5 |
| 20260503230040 | 77 | 45 | 1.0 | 5.0 | 0.00 | 0.00 | 0.00 | 46 | 1017.4 |
| 20260503225535 | 77 | 45 | 1.0 | 4.0 | 0.00 | 0.00 | 0.00 | 44 | 1017.4 |
| 20260503225029 | 77 | 45 | 1.0 | 4.0 | 0.00 | 0.00 | 0.00 | 42 | 1017.4 |
| 20260503224523 | 77 | 45 | 1.0 | 4.0 | 0.00 | 0.00 | 0.00 | 42 | 1017.5 |
| 20260503224017 | 78 | 45 | 1.0 | 4.0 | 0.00 | 0.00 | 0.00 | 43 | 1017.4 |
| 20260503223511 | 78 | 44 | 1.0 | 4.0 | 0.00 | 0.00 | 0.00 | 44 | 1017.4 |
| 20260503223005 | 78 | 44 | 2.0 | 6.0 | 0.00 | 0.00 | 0.00 | 43 | 1017.7 |
| 20260503222459 | 77 | 44 | 2.0 | 6.0 | 0.00 | 0.00 | 0.00 | 44 | 1017.7 |
| 20260503221948 | 77 | 45 | 2.0 | 4.0 | 0.00 | 0.00 | 0.00 | 42 | 1017.8 |
| 20260503221443 | 78 | 44 | 2.0 | 4.0 | 0.00 | 0.00 | 0.00 | 43 | 1017.9 |
| 20260503221426 | 78 | 44 | 2.0 | 5.0 | 0.00 | 0.00 | 0.00 | 41 | 1018.0 |
| 20260503220431 | 78 | 44 | 2.0 | 7.0 | 0.00 | 0.00 | 0.00 | 43 | 1018.1 |
| 20260503215925 | 77 | 44 | 2.0 | 7.0 | 0.00 | 0.00 | 0.00 | 42 | 1018.0 |
| 20260503215636 | 77 | 44 | 2.0 | 6.0 | 0.00 | 0.00 | 0.00 | 40 | 1018.1 |
| 20260503214913 | 77 | 44 | 2.0 | 5.0 | 0.00 | 0.00 | 0.00 | 41 | 1018.1 |
| 20260503214407 | 78 | 44 | 2.0 | 7.0 | 0.00 | 0.00 | 0.00 | 41 | 1018.3 |
| 20260503213900 | 78 | 44 | 2.0 | 7.0 | 0.00 | 0.00 | 0.00 | 42 | 1018.1 |
| 20260503213355 | 78 | 44 | 2.0 | 6.0 | 0.00 | 0.00 | 0.00 | 43 | 1018.1 |
| 20260503212849 | 78 | 44 | 2.0 | 6.0 | 0.00 | 0.00 | 0.00 | 42 | 1018.2 |
| 20260503212343 | 78 | 44 | 1.0 | 4.0 | 0.00 | 0.00 | 0.00 | 43 | 1018.2 |
| 20260503211836 | 78 | 44 | 1.0 | 5.0 | 0.00 | 0.00 | 0.00 | 41 | 1018.2 |
| 20260503211331 | 78 | 45 | 1.0 | 5.0 | 0.00 | 0.00 | 0.00 | 42 | 1018.3 |
| 20260503210825 | 78 | 44 | 1.0 | 4.0 | 0.00 | 0.00 | 0.00 | 44 | 1018.3 |
| 20260503210318 | 78 | 44 | 2.0 | 6.0 | 0.00 | 0.00 | 0.00 | 42 | 1018.4 |
| 20260503205812 | 77 | 45 | 1.0 | 6.0 | 0.00 | 0.00 | 0.00 | 46 | 1018.4 |
| 20260503205528 | 77 | 45 | 1.0 | 6.0 | 0.00 | 0.00 | 0.00 | 46 | 1018.5 |
| 20260503204801 | 77 | 45 | 2.0 | 6.0 | 0.00 | 0.00 | 0.00 | 44 | 1018.7 |
| 20260503204255 | 77 | 44 | 2.0 | 6.0 | 0.00 | 0.00 | 0.00 | 41 | 1018.8 |
| 20260503203749 | 77 | 45 | 1.0 | 6.0 | 0.00 | 0.00 | 0.00 | 44 | 1019.0 |
| 20260503203243 | 77 | 45 | 2.0 | 6.0 | 0.00 | 0.00 | 0.00 | 41 | 1019.0 |
| 20260503202736 | 77 | 45 | 3.0 | 8.0 | 0.00 | 0.00 | 0.00 | 39 | 1019.1 |
| 20260503202231 | 77 | 44 | 2.0 | 8.0 | 0.00 | 0.00 | 0.00 | 44 | 1019.3 |
| 20260503201725 | 77 | 44 | 2.0 | 7.0 | 0.00 | 0.00 | 0.00 | 45 | 1019.3 |
| 20260503201219 | 77 | 44 | 2.0 | 7.0 | 0.00 | 0.00 | 0.00 | 45 | 1019.3 |
| 20260503200712 | 77 | 99 | 2.0 | 7.0 | 0.00 | 0.00 | 0.00 | 43 | 1019.4 |
| 20260503200207 | 78 | 136 | 1.0 | 7.0 | 0.00 | 0.00 | 0.00 | 39 | 1019.6 |
| 20260503195701 | 78 | 132 | 1.0 | 4.0 | 0.00 | 0.00 | 0.00 | 41 | 1019.8 |
| 20260503195155 | 78 | 49 | 2.0 | 6.0 | 0.00 | 0.00 | 0.00 | 44 | 1020.0 |
| 20260503194916 | 77 | 49 | 2.0 | 7.0 | 0.00 | 0.00 | 0.00 | 42 | 1020.0 |
| 20260503194415 | 77 | 49 | 2.0 | 7.0 | 0.00 | 0.00 | 0.00 | 43 | 1020.1 |
| 20260503193654 | 77 | 119 | 2.0 | 6.0 | 0.00 | 0.00 | 0.00 | 42 | 1020.0 |
| 20260503193153 | 77 | 90 | 3.0 | 6.0 | 0.00 | 0.00 | 0.00 | 39 | 1020.2 |
| 20260503192653 | 78 | 49 | 2.0 | 6.0 | 0.00 | 0.00 | 0.00 | 41 | 1020.1 |
| 20260503192153 | 78 | 124 | 1.0 | 6.0 | 0.00 | 0.00 | 0.00 | 41 | 1020.2 |
| 20260503191654 | 78 | 105 | 1.0 | 4.0 | 0.00 | 0.00 | 0.00 | 40 | 1020.4 |
| 20260503191153 | 78 | 132 | 1.0 | 5.0 | 0.00 | 0.00 | 0.00 | 41 | 1020.6 |
| 20260503190654 | 78 | 155 | 1.0 | 5.0 | 0.00 | 0.00 | 0.00 | 42 | 1020.7 |
| 20260503190154 | 78 | 94 | 2.0 | 7.0 | 0.00 | 0.00 | 0.00 | 45 | 1020.6 |
| 20260503185656 | 78 | 130 | 2.0 | 7.0 | 0.00 | 0.00 | 0.00 | 42 | 1020.7 |
| 20260503185158 | 79 | 90 | 1.0 | 6.0 | 0.00 | 0.00 | 0.00 | 40 | 1020.6 |
| 20260503184658 | 79 | 45 | 1.0 | 5.0 | 0.00 | 0.00 | 0.00 | 40 | 1020.7 |
| 20260503184151 | 79 | 46 | 1.0 | 5.0 | 0.00 | 0.00 | 0.00 | 40 | 1020.8 |
| 20260503183651 | 79 | 45 | 1.0 | 6.0 | 0.00 | 0.00 | 0.00 | 42 | 1020.9 |
| 20260503183419 | 78 | 46 | 1.0 | 6.0 | 0.00 | 0.00 | 0.00 | 40 | 1020.9 |
| 20260503182916 | 77 | 45 | 2.0 | 7.0 | 0.00 | 0.00 | 0.00 | 44 | 1020.9 |
| 20260503182149 | 76 | 45 | 2.0 | 7.0 | 0.00 | 0.00 | 0.00 | 43 | 1020.9 |
| 20260503181651 | 77 | 45 | 1.0 | 5.0 | 0.00 | 0.00 | 0.00 | 42 | 1021.1 |
| 20260503181149 | 77 | 45 | 2.0 | 5.0 | 0.00 | 0.00 | 0.00 | 42 | 1021.2 |
| 20260503180647 | 76 | 45 | 2.0 | 5.0 | 0.00 | 0.00 | 0.00 | 42 | 1021.3 |
| 20260503180147 | 76 | 46 | 2.0 | 6.0 | 0.00 | 0.00 | 0.00 | 42 | 1021.2 |
| 20260503175648 | 76 | 45 | 2.0 | 6.0 | 0.00 | 0.00 | 0.00 | 40 | 1021.2 |
| 20260503175149 | 76 | 46 | 2.0 | 4.0 | 0.00 | 0.00 | 0.00 | 42 | 1021.3 |
| 20260503174643 | 77 | 46 | 2.0 | 4.0 | 0.00 | 0.00 | 0.00 | 39 | 1021.3 |
| 20260503174145 | 78 | 172 | 1.0 | 3.0 | 0.00 | 0.00 | 0.00 | 39 | 1021.4 |
| 20260503173644 | 78 | 154 | 1.0 | 3.0 | 0.00 | 0.00 | 0.00 | 49 | 1021.4 |
| 20260503173143 | 78 | 139 | 1.0 | 3.0 | 0.00 | 0.00 | 0.00 | 40 | 1021.5 |
| 20260503172644 | 78 | 135 | 1.0 | 3.0 | 0.00 | 0.00 | 0.00 | 44 | 1021.6 |
| 20260503172144 | 77 | 146 | 1.0 | 3.0 | 0.00 | 0.00 | 0.00 | 39 | 1021.7 |
| 20260503171644 | 77 | 131 | 1.0 | 2.0 | 0.00 | 0.00 | 0.00 | 42 | 1021.7 |
| 20260503171144 | 75 | 128 | 1.0 | 2.0 | 0.00 | 0.00 | 0.00 | 45 | 1021.9 |
| 20260503170644 | 75 | 119 | 1.0 | 5.0 | 0.00 | 0.00 | 0.00 | 39 | 1021.7 |
| 20260503170139 | 76 | 194 | 1.0 | 5.0 | 0.00 | 0.00 | 0.00 | 45 | 1021.9 |
| 20260503150632 | 74 | 141 | 0.0 | 0.0 | 0.00 | 0.00 | 0.00 | 49 | 1022.5 |
| 20260503150129 | 74 | 170 | 0.0 | 0.0 | 0.00 | 0.00 | 0.00 | 47 | 1022.4 |
| 20260503130924 | 64 | 146 | 0.0 | 0.0 | 0.00 | 0.00 | 0.00 | 79 | 1021.6 |
| 20260503130418 | 62 | 146 | 0.0 | 0.0 | 0.00 | 0.00 | 0.00 | 81 | 1021.6 |
| 20260503110659 | 49 | 146 | 0.0 | 0.0 | 0.00 | 0.00 | 0.00 | 97 | 1020.3 |
| 20260503110153 | 49 | 146 | 0.0 | 0.0 | 0.00 | 0.00 | 0.00 | 97 | 1020.4 |
| 20260503081235 | 53 | 148 | 0.0 | 0.0 | 0.00 | 0.02 | 0.00 | 90 | 1019.9 |
| 20260503080508 | 53 | 148 | 0.0 | 0.0 | 0.00 | 0.02 | 0.00 | 91 | 1020.0 |
| 20260503072505 | 54 | 148 | 0.0 | 0.0 | 0.00 | 0.03 | 0.00 | 89 | 1019.6 |
| 20260503072004 | 54 | 148 | 0.0 | 0.0 | 0.00 | 0.03 | 0.00 | 88 | 1019.6 |
| 20260503071506 | 54 | 148 | 0.0 | 0.0 | 0.00 | 0.04 | 0.00 | 86 | 1019.5 |
| 20260503071005 | 54 | 148 | 0.0 | 0.0 | 0.00 | 0.06 | 0.00 | 85 | 1019.5 |
| 20260503070504 | 54 | 148 | 0.0 | 0.0 | 0.00 | 0.06 | 0.00 | 83 | 1019.4 |
| 20260503054956 | 56 | 148 | 0.0 | 0.0 | 0.00 | 0.17 | 0.00 | 75 | 1019.1 |
| 20260503054713 | 56 | 148 | 0.0 | 0.0 | 0.00 | 0.17 | 0.00 | 73 | 1019.2 |
| 20260503053951 | 56 | 148 | 0.0 | 0.0 | 0.00 | 0.18 | 0.00 | 73 | 1019.1 |
| 20260503053444 | 56 | 148 | 0.0 | 0.0 | 0.00 | 0.19 | 0.00 | 73 | 1019.1 |
| 20260503052939 | 57 | 148 | 0.0 | 0.0 | 0.00 | 0.22 | 0.00 | 72 | 1019.1 |
| 20260503052658 | 57 | 148 | 0.0 | 0.0 | 0.00 | 0.24 | 0.00 | 71 | 1019.2 |
| 20260503051927 | 57 | 148 | 0.0 | 0.0 | 0.00 | 0.26 | 0.00 | 69 | 1019.2 |
| 20260503051640 | 58 | 148 | 0.0 | 0.0 | 0.00 | 0.27 | 0.00 | 70 | 1019.2 |
| 20260503050915 | 58 | 148 | 0.0 | 0.0 | 0.00 | 0.28 | 0.00 | 69 | 1019.2 |
| 20260503050409 | 58 | 148 | 0.0 | 0.0 | 0.00 | 0.28 | 0.00 | 68 | 1019.3 |
| 20260503050123 | 59 | 148 | 0.0 | 1.0 | 0.00 | 0.28 | 0.28 | 68 | 1019.3 |
| 20260503045357 | 59 | 148 | 0.0 | 1.0 | 0.00 | 0.29 | 0.28 | 68 | 1019.2 |
| 20260503044852 | 59 | 149 | 0.0 | 1.0 | 0.00 | 0.31 | 0.28 | 67 | 1019.1 |
| 20260503044607 | 59 | 149 | 0.0 | 1.0 | 0.00 | 0.34 | 0.28 | 67 | 1019.1 |
| 20260503043843 | 59 | 149 | 0.0 | 1.0 | 0.00 | 0.35 | 0.28 | 67 | 1019.2 |
| 20260503043342 | 60 | 149 | 0.0 | 1.0 | 0.00 | 0.35 | 0.28 | 67 | 1019.1 |
| 20260503042843 | 60 | 142 | 0.0 | 1.0 | 0.00 | 0.35 | 0.28 | 66 | 1019.1 |
| 20260503042342 | 60 | 142 | 0.0 | 1.0 | 0.00 | 0.35 | 0.28 | 66 | 1019.1 |
| 20260503041844 | 60 | 143 | 0.0 | 2.0 | 0.00 | 0.35 | 0.28 | 66 | 1019.1 |
| 20260503041345 | 60 | 147 | 0.0 | 2.0 | 0.00 | 0.35 | 0.28 | 66 | 1019.0 |
| 20260503041340 | 60 | 150 | 0.0 | 1.0 | 0.00 | 0.35 | 0.28 | 67 | 1019.0 |
| 20260503040342 | 60 | 147 | 0.0 | 1.0 | 0.00 | 0.35 | 0.28 | 66 | 1019.0 |
| 20260503035841 | 60 | 147 | 0.0 | 1.0 | 0.00 | 0.36 | 0.28 | 66 | 1019.1 |
| 20260503035340 | 61 | 149 | 0.0 | 2.0 | 0.00 | 0.37 | 0.28 | 65 | 1019.0 |
| 20260503035106 | 61 | 151 | 0.0 | 2.0 | 0.00 | 0.37 | 0.28 | 65 | 1019.0 |
| 20260503034340 | 61 | 151 | 0.0 | 2.0 | 0.00 | 0.37 | 0.28 | 64 | 1019.0 |
| 20260503033840 | 61 | 138 | 0.0 | 2.0 | 0.00 | 0.37 | 0.28 | 64 | 1018.9 |
| 20260503033341 | 61 | 149 | 0.0 | 2.0 | 0.00 | 0.37 | 0.28 | 64 | 1018.7 |
| 20260503032836 | 61 | 156 | 0.0 | 2.0 | 0.00 | 0.37 | 0.28 | 64 | 1018.9 |
| 20260503032337 | 61 | 149 | 0.0 | 2.0 | 0.00 | 0.37 | 0.28 | 64 | 1019.0 |
| 20260503031838 | 61 | 149 | 0.0 | 2.0 | 0.00 | 0.37 | 0.28 | 64 | 1018.9 |
| 20260503031337 | 62 | 149 | 0.0 | 2.0 | 0.00 | 0.37 | 0.28 | 63 | 1018.9 |